Home   Weather   Jefferson City   Past weeks

Flag for USA Past Weather in Jefferson City, Missouri, USA — Yesterday and Last 2 Weeks

66 °F


Feels Like: 66 °F
Forecast: 50 / 67 °F
Wind: 3 mph from North

Location: Jefferson City Memorial Airport

Current Time: Oct 27, 2016 at 3:52:54 PM

Latest Report: Oct 27, 2016 at 2:53 PM

Visibility: 10 mi

Pressure: 30.19 "Hg

Humidity: 56%

Dew Point: 50 °F

Location of Jefferson CityLocation

Past Weather in Jefferson City — Graph


Jefferson City Temperature Yesterday

Maximum temperature yesterday: 70 °F (at 2:53 PM)
Minimum temperature yesterday: 56 °F (at 6:53 AM)
Average temperature yesterday: 63 °F

High & Low Weather Summary for the Past Weeks

High89 °F (Oct 17, 1:53 PM)100% (Oct 22, 2:53 AM)30.34 "Hg (Oct 22, 2:53 AM)
Low37 °F (Oct 22, 5:03 AM)36% (Oct 23, 2:53 PM)29.48 "Hg (Oct 17, 3:53 PM)
Average62 °F72%30.04 "Hg
* Reported Oct 12 1:53 PM — Oct 27 1:53 PM, Jefferson City, Weather by CustomWeather, © 2016

Note: Actual official high and low records may vary slightly from our data, if they occured in-between our weather recording intervals... More about our weather records


Jefferson City Weather History for the Previous 24 Hours

Scroll right to see more
Time TempWeatherWind HumidityBarometerVisibility
1:53 PM
Thu, Oct 27
64 °FSunny.5 mph58%30.21 "Hg9 mi
12:53 PM62 °FSunny.6 mph62%30.24 "Hg8 mi
11:53 AM58 °FSunny.3 mph70%30.25 "Hg9 mi
10:53 AM57 °FOvercast.7 mph69%30.26 "Hg10 mi
9:53 AM54 °FOvercast.5 mph77%30.24 "Hg8 mi
8:53 AM54 °FOvercast.7 mph77%30.24 "Hg9 mi
7:53 AM54 °FOvercast.3 mph80%30.21 "Hg10 mi
6:53 AM55 °FOvercast.6 mph77%30.19 "Hg10 mi
5:53 AM55 °FOvercast.6 mph80%30.17 "Hg10 mi
4:53 AM55 °FOvercast.No wind90%30.15 "Hg10 mi
3:53 AM52 °FPassing clouds.No wind97%30.14 "Hg10 mi
2:53 AM56 °FPassing clouds.No wind84%30.14 "Hg10 mi
1:53 AM59 °FPassing clouds.5 mph78%30.14 "Hg10 mi
12:53 AM61 °FOvercast.7 mph78%30.11 "Hg10 mi
11:53 PM
Wed, Oct 26
62 °FOvercast.8 mph80%30.11 "Hg10 mi
10:53 PM64 °FOvercast.12 mph87%30.09 "Hg9 mi
9:53 PM64 °FMostly cloudy.7 mph90%30.06 "Hg10 mi
8:53 PM65 °FPassing clouds.No wind85%30.04 "Hg10 mi
7:53 PM67 °FOvercast.No wind81%30.03 "Hg10 mi
6:53 PM67 °FOvercast.3 mph81%30.02 "Hg10 mi
5:53 PM68 °FMore clouds than sun.No wind78%30.00 "Hg10 mi
4:53 PM68 °FOvercast.10 mph76%30.00 "Hg10 mi
3:53 PM69 °FMostly cloudy.9 mph70%29.99 "Hg10 mi
Weather by CustomWeather, © 2016

See weather overviewHow to use our weather pages